GW1010 Weather Reports


Display with metric or nautical units.
time (UTC)temp
F
wind
direction
speed
MPH
gust
MPH
rain 1hr
in
rain 24hr
in
rain mn
in
humidity
%
barometer
mb
20260509173041 66 0 1.0 4.0 0.00 0.00 0.00 66 1016.0
20260509172530 66 250 1.0 2.0 0.00 0.00 0.00 67 1016.0
20260509172030 65 232 0.0 2.0 0.00 0.00 0.00 67 1016.1
20260509171536 65 187 0.0 2.0 0.00 0.00 0.00 69 1016.0
20260509171027 64 188 0.0 2.0 0.00 0.00 0.00 71 1016.1
20260509170528 63 187 0.0 2.0 0.00 0.00 0.00 73 1016.1
20260509170045 63 186 0.0 2.0 0.00 0.00 0.00 74 1016.2
20260509165527 61 188 0.0 3.0 0.00 0.00 0.00 76 1016.2
20260509165028 61 0 1.0 3.0 0.00 0.00 0.00 76 1016.2
20260509164544 61 188 0.0 2.0 0.00 0.00 0.00 78 1016.3
20260509164027 60 0 0.0 2.0 0.00 0.00 0.00 80 1016.4
20260509163527 58 0 0.0 4.0 0.00 0.00 0.00 82 1016.4
20260509163054 58 0 0.0 4.0 0.00 0.00 0.00 82 1016.5
20260509162527 57 188 1.0 4.0 0.00 0.00 0.00 83 1016.5
20260509162028 57 0 0.0 2.0 0.00 0.00 0.00 82 1016.5
20260509161542 58 191 0.0 3.0 0.00 0.00 0.00 84 1016.6
20260509161031 56 0 0.0 4.0 0.00 0.00 0.00 86 1016.6
20260509160527 56 0 1.0 4.0 0.00 0.00 0.00 88 1016.7
20260509160038 55 0 0.0 1.0 0.00 0.00 0.00 89 1016.7
20260509155527 54 0 0.0 1.0 0.00 0.00 0.00 89 1016.7
20260509155031 54 0 0.0 0.0 0.00 0.00 0.00 89 1016.8
20260509154542 54 0 0.0 0.0 0.00 0.00 0.00 90 1016.8
20260509154031 54 0 0.0 1.0 0.00 0.00 0.00 90 1016.7
20260509153528 53 0 0.0 1.0 0.00 0.00 0.00 91 1016.8
20260509153041 53 0 0.0 1.0 0.00 0.00 0.00 92 1016.8
20260509152529 53 0 0.0 1.0 0.00 0.00 0.00 92 1016.8
20260509152028 53 0 0.0 1.0 0.00 0.00 0.00 93 1016.7
20260509151544 52 0 0.0 1.0 0.00 0.00 0.00 93 1016.7
20260509151027 52 0 0.0 1.0 0.00 0.00 0.00 94 1016.7
20260509150531 52 0 0.0 1.0 0.00 0.00 0.00 94 1016.8
20260509150042 52 0 0.0 0.0 0.00 0.00 0.00 94 1016.8
20260509145527 52 0 0.0 0.0 0.00 0.00 0.00 94 1016.8
20260509145027 52 0 0.0 0.0 0.00 0.00 0.00 95 1016.8
20260509144536 51 0 0.0 0.0 0.00 0.00 0.00 94 1016.7
20260509144027 51 0 0.0 0.0 0.00 0.00 0.00 94 1016.8
20260509143528 51 0 0.0 0.0 0.00 0.00 0.00 95 1016.7
20260509143051 51 0 0.0 0.0 0.00 0.00 0.00 95 1016.7
20260509142527 51 0 0.0 0.0 0.00 0.00 0.00 95 1016.7
20260509142028 51 0 0.0 0.0 0.00 0.00 0.00 95 1016.7
20260509141545 51 0 0.0 0.0 0.00 0.00 0.00 94 1016.7
20260509141027 51 0 0.0 0.0 0.00 0.00 0.00 94 1016.8
20260509140527 51 0 0.0 0.0 0.00 0.00 0.00 95 1016.7
20260509140047 51 0 0.0 0.0 0.00 0.00 0.00 95 1016.7
20260509135530 51 0 0.0 0.0 0.00 0.00 0.00 95 1016.7
20260509135029 51 0 0.0 0.0 0.00 0.00 0.00 95 1016.6
20260509134548 50 0 0.0 0.0 0.00 0.00 0.00 95 1016.6
20260509134028 50 0 0.0 0.0 0.00 0.00 0.00 94 1016.6
20260509133528 50 0 0.0 1.0 0.00 0.00 0.00 94 1016.6
20260509133054 50 0 0.0 1.0 0.00 0.00 0.00 94 1016.6
20260509132528 50 0 0.0 0.0 0.00 0.00 0.00 94 1016.6
20260509132028 50 0 0.0 0.0 0.00 0.00 0.00 94 1016.6
20260509131544 50 0 0.0 0.0 0.00 0.00 0.00 94 1016.5
20260509131029 50 0 0.0 0.0 0.00 0.00 0.00 94 1016.3
20260509130529 50 0 0.0 0.0 0.00 0.00 0.00 94 1016.2
20260509130044 50 0 0.0 0.0 0.00 0.00 0.00 94 1016.2
20260509125528 50 0 0.0 0.0 0.00 0.00 0.00 94 1016.2
20260509125028 50 0 0.0 0.0 0.00 0.00 0.00 94 1016.2
20260509124539 50 0 0.0 0.0 0.00 0.00 0.00 94 1016.2
20260509124027 50 0 0.0 0.0 0.00 0.00 0.00 94 1016.1
20260509123527 50 0 0.0 0.0 0.00 0.00 0.00 94 1016.2
20260509123046 50 0 0.0 0.0 0.00 0.00 0.00 94 1016.2
20260509122528 50 0 0.0 0.0 0.00 0.00 0.00 94 1016.1
20260509122028 50 0 0.0 0.0 0.00 0.00 0.00 94 1016.2
20260509121540 50 0 0.0 0.0 0.00 0.00 0.00 94 1016.2
20260509121030 50 0 0.0 0.0 0.00 0.00 0.00 94 1016.3
20260509120528 50 0 0.0 1.0 0.00 0.00 0.00 94 1016.2
20260509120044 50 0 0.0 1.0 0.00 0.00 0.00 94 1016.4
20260509115527 50 0 0.0 1.0 0.00 0.00 0.00 94 1016.2
20260509115027 50 0 0.0 2.0 0.00 0.00 0.00 94 1016.3
20260509114553 50 0 0.0 2.0 0.00 0.00 0.00 94 1016.4
20260509114032 50 0 0.0 2.0 0.00 0.00 0.00 94 1016.3
20260509113528 50 0 0.0 0.0 0.00 0.00 0.00 94 1016.2
20260509113045 50 0 0.0 0.0 0.00 0.00 0.00 94 1016.3
20260509112527 50 0 0.0 2.0 0.00 0.00 0.00 94 1016.3
20260509112027 50 0 0.0 2.0 0.00 0.00 0.00 94 1016.3
20260509111543 50 0 0.0 1.0 0.00 0.00 0.00 94 1016.4
20260509111027 50 0 0.0 1.0 0.00 0.00 0.00 94 1016.4
20260509110527 50 0 0.0 0.0 0.00 0.00 0.00 94 1016.4
20260509110053 49 0 0.0 0.0 0.00 0.00 0.00 93 1016.5
20260509105531 49 0 0.0 2.0 0.00 0.00 0.00 93 1016.4
20260509105027 49 0 0.0 2.0 0.00 0.00 0.00 93 1016.5
20260509104543 49 179 0.0 2.0 0.00 0.00 0.00 93 1016.5
20260509104027 49 0 0.0 0.0 0.00 0.00 0.00 92 1016.5
20260509103528 49 0 0.0 0.0 0.00 0.00 0.00 92 1016.6
20260509103043 49 0 0.0 0.0 0.00 0.00 0.00 92 1016.4
20260509102527 49 0 0.0 0.0 0.00 0.00 0.00 93 1016.5
20260509102028 49 0 0.0 0.0 0.00 0.00 0.00 92 1016.6
20260509101541 49 0 0.0 0.0 0.00 0.00 0.00 92 1016.4
20260509101027 49 0 0.0 0.0 0.00 0.00 0.00 91 1016.5
20260509100527 49 0 0.0 0.0 0.00 0.00 0.00 91 1016.5
20260509100100 50 0 0.0 0.0 0.00 0.00 0.00 90 1016.5
20260509095527 50 0 0.0 0.0 0.00 0.00 0.00 90 1016.3
20260509095027 50 0 0.0 0.0 0.00 0.00 0.00 90 1016.2
20260509094539 50 0 0.0 0.0 0.00 0.00 0.00 91 1016.2
20260509094027 50 0 0.0 0.0 0.00 0.00 0.00 91 1016.2
20260509093528 50 0 0.0 0.0 0.00 0.00 0.00 91 1016.3
20260509093045 50 0 0.0 0.0 0.00 0.00 0.00 90 1016.2
20260509092527 50 0 0.0 0.0 0.00 0.00 0.00 89 1016.2
20260509092028 50 0 0.0 0.0 0.00 0.00 0.00 89 1016.2
20260509091540 51 0 0.0 0.0 0.00 0.00 0.00 88 1016.2
20260509091028 51 0 0.0 0.0 0.00 0.00 0.00 87 1016.1
20260509090527 52 0 0.0 0.0 0.00 0.00 0.00 87 1016.2
20260509090045 52 0 0.0 0.0 0.00 0.00 0.00 87 1016.2
20260509085528 52 0 0.0 0.0 0.00 0.00 0.00 87 1016.1
20260509085028 53 0 0.0 0.0 0.00 0.00 0.00 87 1016.2
20260509084547 53 0 0.0 0.0 0.00 0.00 0.00 86 1016.1
20260509084028 53 0 0.0 0.0 0.00 0.00 0.00 85 1016.1
20260509083531 53 0 0.0 0.0 0.00 0.00 0.00 84 1016.2
20260509083043 54 0 0.0 0.0 0.00 0.00 0.00 84 1016.2
20260509082528 54 0 0.0 0.0 0.00 0.00 0.00 84 1016.3
20260509082028 54 0 0.0 0.0 0.00 0.00 0.00 84 1016.4
20260509081543 54 0 0.0 0.0 0.00 0.00 0.00 84 1016.3
20260509081028 54 0 0.0 0.0 0.00 0.00 0.00 83 1016.3
20260509080528 54 0 0.0 0.0 0.00 0.00 0.00 82 1016.3
20260509080120 55 0 0.0 0.0 0.00 0.00 0.00 81 1016.2
20260509075529 55 0 0.0 0.0 0.00 0.00 0.00 81 1016.3
20260509075030 55 0 0.0 0.0 0.00 0.00 0.00 80 1016.3
20260509074547 56 0 0.0 0.0 0.00 0.00 0.00 80 1016.4
20260509074028 56 0 0.0 0.0 0.00 0.00 0.00 79 1016.2
20260509073528 56 0 0.0 0.0 0.00 0.00 0.00 79 1016.2
20260509073128 56 0 0.0 0.0 0.00 0.00 0.00 80 1016.2
20260509072527 56 0 0.0 0.0 0.00 0.00 0.00 79 1016.3
20260509072027 57 0 0.0 0.0 0.00 0.00 0.00 78 1016.3
20260509071549 57 0 0.0 0.0 0.00 0.00 0.00 78 1016.1
20260509071028 57 0 0.0 0.0 0.00 0.00 0.00 78 1016.2
20260509070527 57 0 0.0 0.0 0.00 0.00 0.00 78 1016.2
20260509070044 57 0 0.0 0.0 0.00 0.00 0.00 77 1016.2
20260509065532 57 0 0.0 0.0 0.00 0.00 0.00 78 1016.2
20260509065027 57 0 0.0 0.0 0.00 0.00 0.00 77 1016.3
20260509064546 57 0 0.0 0.0 0.00 0.00 0.00 75 1016.2
20260509064028 58 0 0.0 0.0 0.00 0.00 0.00 75 1016.2
20260509063531 58 0 0.0 0.0 0.00 0.00 0.00 74 1016.0
20260509063043 58 0 0.0 0.0 0.00 0.00 0.00 74 1016.1
20260509062527 59 0 0.0 0.0 0.00 0.00 0.00 74 1016.0
20260509062031 59 0 0.0 0.0 0.00 0.00 0.00 73 1016.0
20260509061549 59 0 0.0 0.0 0.00 0.00 0.00 72 1016.0
20260509061027 59 0 0.0 0.0 0.00 0.00 0.00 72 1015.9
20260509060527 59 0 0.0 0.0 0.00 0.00 0.00 71 1015.9
20260509060036 59 0 0.0 0.0 0.00 0.00 0.00 71 1015.9
20260509055527 60 0 0.0 0.0 0.00 0.00 0.00 70 1015.9
20260509055031 60 0 0.0 0.0 0.00 0.00 0.00 69 1015.9
20260509054545 60 0 0.0 0.0 0.00 0.00 0.00 69 1015.9
20260509054028 60 0 0.0 0.0 0.00 0.00 0.00 68 1015.9
20260509053528 60 0 0.0 0.0 0.00 0.00 0.00 68 1015.8
20260509053048 60 0 0.0 0.0 0.00 0.00 0.00 67 1015.8
20260509052528 61 0 0.0 0.0 0.00 0.00 0.00 67 1015.7
20260509052029 61 0 0.0 0.0 0.00 0.00 0.00 64 1015.6
20260509051555 62 0 0.0 0.0 0.00 0.00 0.00 63 1015.7
20260509051027 62 0 0.0 0.0 0.00 0.00 0.00 63 1015.7
20260509050530 62 0 0.0 0.0 0.00 0.00 0.00 62 1015.7
20260509050043 62 0 0.0 0.0 0.00 0.00 0.00 65 1015.6
20260509045530 62 0 0.0 0.0 0.00 0.00 0.00 63 1015.6
20260509045030 62 0 0.0 0.0 0.00 0.00 0.00 64 1015.6
20260509044537 62 0 0.0 0.0 0.00 0.00 0.00 65 1015.6
20260509044029 62 0 0.0 0.0 0.00 0.00 0.00 65 1015.5
20260509043531 63 0 0.0 0.0 0.00 0.00 0.00 67 1015.5
20260509043052 63 0 0.0 0.0 0.00 0.00 0.00 67 1015.4
20260509042529 63 0 0.0 0.0 0.00 0.00 0.00 66 1015.3
20260509042028 63 0 0.0 0.0 0.00 0.00 0.00 69 1015.5
20260509041542 63 0 0.0 0.0 0.00 0.00 0.00 68 1015.4
20260509041029 63 0 0.0 0.0 0.00 0.00 0.00 64 1015.2
20260509040527 63 0 0.0 0.0 0.00 0.00 0.00 64 1015.1
20260509040100 64 0 0.0 0.0 0.00 0.00 0.00 65 1015.1
20260509035529 64 0 0.0 0.0 0.00 0.00 0.00 65 1015.1
20260509035028 65 0 0.0 0.0 0.00 0.00 0.00 65 1015.1
20260509034540 65 0 0.0 0.0 0.00 0.00 0.00 65 1015.0
20260509034027 66 0 0.0 0.0 0.00 0.00 0.00 63 1015.0
20260509033528 67 0 0.0 0.0 0.00 0.00 0.00 61 1014.8
20260509033036 67 0 0.0 0.0 0.00 0.00 0.00 62 1014.7
20260509032525 68 0 0.0 0.0 0.00 0.00 0.00 61 1014.6
20260509032027 69 0 0.0 0.0 0.00 0.00 0.00 60 1014.6
20260509031547 69 0 0.0 0.0 0.00 0.00 0.00 58 1014.5
20260509031028 70 0 0.0 0.0 0.00 0.00 0.00 56 1014.4
20260509030531 71 0 0.0 0.0 0.00 0.00 0.00 56 1014.3
20260509030044 72 0 0.0 0.0 0.00 0.00 0.00 53 1014.3
20260509025528 72 0 0.0 0.0 0.00 0.00 0.00 51 1014.3
20260509025027 72 0 0.0 0.0 0.00 0.00 0.00 50 1014.2
20260509024538 73 0 0.0 0.0 0.00 0.00 0.00 48 1014.2
20260509024027 74 0 0.0 0.0 0.00 0.00 0.00 46 1014.1
20260509023528 74 0 0.0 0.0 0.00 0.00 0.00 46 1014.1
20260509023038 75 0 0.0 0.0 0.00 0.00 0.00 45 1014.0
20260509022527 76 0 0.0 0.0 0.00 0.00 0.00 44 1014.0
20260509022027 77 0 0.0 0.0 0.00 0.00 0.00 43 1013.9
20260509021536 77 0 0.0 0.0 0.00 0.00 0.00 42 1013.9
20260509021027 77 0 0.0 0.0 0.00 0.00 0.00 41 1013.9
20260509020526 78 0 0.0 0.0 0.00 0.00 0.00 40 1013.9
20260509020044 79 0 0.0 0.0 0.00 0.00 0.00 41 1013.8
20260509015531 79 0 0.0 0.0 0.00 0.00 0.00 40 1013.9
20260509015028 80 0 0.0 0.0 0.00 0.00 0.00 39 1013.9
20260509014544 80 0 0.0 1.0 0.00 0.00 0.00 39 1013.8
20260509014028 81 0 0.0 1.0 0.00 0.00 0.00 38 1013.8
20260509013531 82 0 0.0 1.0 0.00 0.00 0.00 37 1013.8
20260509013054 83 0 0.0 1.0 0.00 0.00 0.00 35 1013.7
20260509012527 84 0 0.0 1.0 0.00 0.00 0.00 34 1013.7
20260509012027 85 0 0.0 1.0 0.00 0.00 0.00 33 1013.8
20260509011537 86 228 0.0 1.0 0.00 0.00 0.00 31 1013.8
20260509011028 87 190 0.0 1.0 0.00 0.00 0.00 31 1013.8
20260509010528 86 160 0.0 2.0 0.00 0.00 0.00 31 1013.8
20260509010037 86 277 0.0 3.0 0.00 0.00 0.00 31 1013.8
20260509005527 85 248 0.0 5.0 0.00 0.00 0.00 32 1013.8
20260509005028 85 311 2.0 5.0 0.00 0.00 0.00 31 1013.9
20260509004604 87 273 0.0 2.0 0.00 0.00 0.00 30 1013.8
20260509004028 86 167 0.0 4.0 0.00 0.00 0.00 33 1013.9
20260509003528 86 60 2.0 4.0 0.00 0.00 0.00 32 1013.9
20260509003046 86 117 1.0 5.0 0.00 0.00 0.00 34 1014.0
20260509002529 86 139 2.0 5.0 0.00 0.00 0.00 31 1014.1
20260509002027 87 139 2.0 5.0 0.00 0.00 0.00 32 1014.2
20260509001539 87 133 1.0 5.0 0.00 0.00 0.00 32 1014.2
20260509001027 87 173 1.0 5.0 0.00 0.00 0.00 33 1014.2
20260509000527 86 266 1.0 7.0 0.00 0.00 0.00 34 1014.3
20260509000042 86 164 1.0 7.0 0.00 0.00 0.00 34 1014.2
20260508235530 86 167 1.0 6.0 0.00 0.00 0.00 37 1014.2
20260508235028 85 221 1.0 7.0 0.00 0.00 0.00 38 1014.2
20260508234546 85 122 2.0 8.0 0.00 0.00 0.00 38 1014.2
20260508234028 85 317 2.0 8.0 0.00 0.00 0.00 38 1014.2
20260508233528 85 203 2.0 8.0 0.00 0.00 0.00 39 1014.2
20260508233043 86 120 3.0 6.0 0.00 0.00 0.00 37 1014.2
20260508232527 86 215 1.0 6.0 0.00 0.00 0.00 37 1014.4
20260508232030 87 323 2.0 4.0 0.00 0.00 0.00 36 1014.5
20260508231543 86 47 1.0 5.0 0.00 0.00 0.00 37 1014.5
20260508231029 87 106 1.0 6.0 0.00 0.00 0.00 35 1014.5
20260508230528 87 236 2.0 6.0 0.00 0.00 0.00 35 1014.5
20260508230055 87 260 1.0 4.0 0.00 0.00 0.00 35 1014.5
20260508225527 87 351 1.0 6.0 0.00 0.00 0.00 37 1014.5
20260508225028 87 96 2.0 6.0 0.00 0.00 0.00 37 1014.6
20260508224543 87 229 2.0 7.0 0.00 0.00 0.00 37 1014.5
20260508224028 87 218 2.0 8.0 0.00 0.00 0.00 37 1014.5
20260508223527 87 124 3.0 8.0 0.00 0.00 0.00 38 1014.6
20260508223036 87 177 3.0 7.0 0.00 0.00 0.00 38 1014.5
20260508222527 88 97 2.0 10.0 0.00 0.00 0.00 39 1014.6
20260508222031 88 259 4.0 10.0 0.00 0.00 0.00 39 1014.7
20260508221543 89 214 3.0 10.0 0.00 0.00 0.00 39 1014.7
20260508221028 89 165 2.0 7.0 0.00 0.00 0.00 38 1014.8
20260508220530 89 19 2.0 8.0 0.00 0.00 0.00 39 1014.9
20260508220052 90 183 2.0 8.0 0.00 0.00 0.00 38 1015.0
20260508215530 90 270 1.0 8.0 0.00 0.00 0.00 39 1015.0
20260508215028 90 159 3.0 6.0 0.00 0.00 0.00 37 1015.1
20260508214548 91 180 2.0 6.0 0.00 0.00 0.00 36 1015.2
20260508214030 90 132 1.0 3.0 0.00 0.00 0.00 29 1015.3
20260508213528 90 170 1.0 4.0 0.00 0.00 0.00 29 1015.3
20260508213039 89 170 1.0 5.0 0.00 0.00 0.00 30 1015.3
20260508212528 89 330 2.0 5.0 0.00 0.00 0.00 30 1015.4
20260508212024 90 169 0.0 5.0 0.00 0.00 0.00 32 1015.5
20260508211543 90 328 1.0 4.0 0.00 0.00 0.00 32 1015.5
20260508211028 90 221 0.0 2.0 0.00 0.00 0.00 32 1015.5
20260508210525 90 212 0.0 2.0 0.00 0.00 0.00 34 1015.6
20260508210053 89 187 1.0 2.0 0.00 0.00 0.00 37 1015.6
20260508205527 88 262 1.0 4.0 0.00 0.00 0.00 38 1015.7
20260508205031 87 72 1.0 4.0 0.00 0.00 0.00 37 1015.8
20260508204544 87 314 1.0 4.0 0.00 0.00 0.00 37 1015.9
20260508204027 88 316 1.0 4.0 0.00 0.00 0.00 36 1016.0
20260508203527 88 111 1.0 4.0 0.00 0.00 0.00 36 1016.1
20260508203046 87 187 1.0 4.0 0.00 0.00 0.00 37 1016.1
20260508202525 87 205 1.0 4.0 0.00 0.00 0.00 38 1016.1
20260508202027 86 333 1.0 5.0 0.00 0.00 0.00 39 1016.1
20260508201537 85 191 0.0 5.0 0.00 0.00 0.00 40 1016.2
20260508201029 85 246 1.0 5.0 0.00 0.00 0.00 38 1016.4
20260508200531 85 267 1.0 3.0 0.00 0.00 0.00 41 1016.5
20260508200044 84 300 1.0 3.0 0.00 0.00 0.00 40 1016.6
20260508195527 83 307 1.0 5.0 0.00 0.00 0.00 41 1016.7
20260508195030 83 0 1.0 5.0 0.00 0.00 0.00 40 1016.7
20260508194547 83 323 1.0 4.0 0.00 0.00 0.00 41 1016.7
20260508194027 83 351 1.0 5.0 0.00 0.00 0.00 42 1016.7
20260508193527 82 25 1.0 5.0 0.00 0.00 0.00 43 1016.8
20260508193050 83 326 1.0 2.0 0.00 0.00 0.00 41 1017.0
20260508192527 82 0 0.0 2.0 0.00 0.00 0.00 41 1017.0
20260508192028 81 0 0.0 2.0 0.00 0.00 0.00 42 1017.2
20260508191543 81 301 0.0 3.0 0.00 0.00 0.00 45 1017.2
20260508191028 81 0 1.0 3.0 0.00 0.00 0.00 43 1017.2
20260508190529 80 293 0.0 3.0 0.00 0.00 0.00 44 1017.3
20260508190048 80 221 1.0 3.0 0.00 0.00 0.00 45 1017.4
20260508185525 79 207 0.0 3.0 0.00 0.00 0.00 45 1017.4
20260508185028 78 308 0.0 2.0 0.00 0.00 0.00 47 1017.6
20260508184557 78 292 0.0 2.0 0.00 0.00 0.00 47 1017.7
20260508184027 77 319 0.0 3.0 0.00 0.00 0.00 50 1017.8
20260508183527 76 214 1.0 3.0 0.00 0.00 0.00 51 1017.8
20260508183041 75 0 0.0 4.0 0.00 0.00 0.00 51 1017.9
20260508182527 74 281 0.0 4.0 0.00 0.00 0.00 52 1017.9
20260508182027 74 318 1.0 4.0 0.00 0.00 0.00 53 1017.9
20260508181555 74 333 1.0 4.0 0.00 0.00 0.00 54 1018.1
20260508181027 73 231 0.0 3.0 0.00 0.00 0.00 56 1018.1
20260508180526 73 236 1.0 3.0 0.00 0.00 0.00 55 1018.2
20260508180044 72 0 1.0 3.0 0.00 0.00 0.00 55 1018.1
20260508175525 72 0 0.0 2.0 0.00 0.00 0.00 57 1018.2
20260508175029 71 167 0.0 3.0 0.00 0.00 0.00 57 1018.2
20260508174545 70 0 0.0 3.0 0.00 0.00 0.00 60 1018.2
20260508174028 69 0 0.0 3.0 0.00 0.00 0.00 63 1018.2
20260508173528 69 108 0.0 1.0 0.00 0.00 0.00 63 1018.3